Regional Weather Roundup
Issued by NWS

Home | Current Version | Previous Version | Graphics & Text | Print | Product List | Glossary On
Versions: 1 2 3 4 5 6 7 8 9 10 11 12 13 14 15 16 17 18 19 20 21 22 23 24 25 26 27 28 29 30 31 32 33 34 35 36 37 38 39 40 41 42 43 44 45 46 47 48 49 50
000
ASUS45 KCYS 171610
RWRWY

WYOMING REGIONAL WEATHER ROUNDUP
NATIONAL WEATHER SERVICE CHEYENNE WY
900 AM MST WED DEC 17 2014

NOTE:  "FAIR" INDICATES FEW OR NO CLOUDS BELOW 12,000 FEET
WITH NO SIGNIFICANT WEATHER AND/OR OBSTRUCTIONS TO VISIBILITY.

WYZ001-171700-
YELLOWSTONE NATIONAL PARK

CITY           SKY/WX    TMP DP  RH WIND       PRES   REMARKS
LK YELLOWSTONE   N/A     20  18  92 CALM      29.96R
W YELLOWSTONE  NOT AVBL

$$
WYZ002>013-054>058-071-098>099-171700-
NORTHERN WYOMING

CITY           SKY/WX    TMP DP  RH WIND       PRES   REMARKS
JACKSON        CLOUDY    21  19  93 CALM      29.97S
CODY           CLOUDY    18  16  93 CALM      29.91S
GREYBULL       MOCLDY    14  12  92 SE3       29.99R
WORLAND        FAIR       5   2  87 S7        29.96F WCI  -7
SHERIDAN       FOG       15  12  88 CALM      29.95F VSB<1/4
BUFFALO        FAIR      24  20  84 NW8       29.91F WCI  15
GILLETTE       FAIR      14  11  87 CALM      29.94R
HULETT           N/A    N/A N/A N/A MISG        N/A
NEWCASTLE      FOG       18  18 100 S5        29.98S VSB 3/4 WCI  11

$$
WYZ014>020-022>026-101>103-171700-
CENTRAL WYOMING

CITY           SKY/WX    TMP DP  RH WIND       PRES   REMARKS
BIG PINEY      FAIR      17  13  84 CALM      29.99R
PINEDALE       CLOUDY    21  19  93 N3        29.99R
DUBOIS         CLOUDY    28  19  69 N15       29.91R WCI  17
LANDER         FAIR       6   0  76 NW6       29.95S HAZE    WCI  -4
RIVERTON       HAZE      14   9  80 NW3       29.97S VSB 1/4
CASPER         FAIR      28  19  69 SW16      29.92S WCI  16
DOUGLAS        FAIR       8   4  83 CALM      29.94S FOG

$$
WYZ021-027>030-104>119-171700-
SOUTHERN WYOMING

CITY           SKY/WX    TMP DP  RH WIND       PRES   REMARKS
EVANSTON       CLOUDY    27  20  75 E5        29.97S WCI  22
FORT BRIDGER   CLOUDY    27  22  82 S5        30.00S WCI  21
ROCK SPRINGS   FAIR      11   8  88 S6        29.99S WCI   1
DIXON          FAIR      11   8  90 NE3       30.04R
RAWLINS        FAIR      21  15  78 CALM      29.98R
SARATOGA       CLOUDY    19  18  93 S6        29.99S WCI  11
LARAMIE        FAIR      21  17  84 SW5       29.97R WCI  15
CHEYENNE       FAIR      35  24  64 SW5       29.95R WCI  31
TORRINGTON     CLOUDY    14  12  92 SE6       30.00R FOG     WCI   5
PINE BLUFFS    FAIR      23  21  93 S5        29.98S WCI  17

$$


USA.gov is the U.S. government's official web portal to all federal, state and local government web resources and services.